AEHF-5 (USA 292)

Last updated on Wed Jul 09 2025 00:02:47 GMT+0000 (Coordinated Universal Time)

1 44481U 19051A 25189.51261706 -.00000238 00000+0 00000+0 0 9992 2 44481 1.9370 316.2965 0065551 13.3183 234.6344 1.00267721 21810
UTC large
Height (km)
Speed (km/s)
/
Latitude / Longitude
Inclination (degrees)
Orbital Period (minutes)
Azimuth
Elevation
Range (km)
Doppler Factor

Next 0 passes for location: London (51.5072 / 0.1276)

Sorry there are no passes over London.